Flag for Netherlands Weather past 2 weeks in Rotterdam, Netherlands

Now
57 °F

Clear.


Feels Like: 55 °F
Forecast: 48 / 60 °F
Wind: 10 mph from West

Location: Rotterdam Zestienhoven Airport

Current Time: May 30, 2015 at 7:28:27 PM

Latest Report: May 30, 2015 at 6:55 PM


Visibility: N/A

Pressure: 30.01 "Hg

Humidity: 55%

Dew point: 41 °F

Location of RotterdamLocation

Historic Weather in Rotterdam — Graph

°F

Rotterdam temperature yesterday

Maximum temperature yesterday: 59 °F (at 3:25 PM)
Minimum temperature yesterday: 46 °F (at 11:55 PM)
Average temperature yesterday: 54 °F

Past Weeks' High & Low Weather Summary

 TemperatureHumidityPressure
High66 °F (May 22, 1:25 PM)100% (May 16, 9:55 AM)30.33 "Hg (May 16, 9:55 AM)
Low37 °F (May 24, 5:25 AM)37% (May 24, 4:25 PM)29.59 "Hg (May 18, 6:55 PM)
Average54 °F74%30.04 "Hg
* Reported May 15 6:25 PM — May 30 6:25 PM, Rotterdam, Weather by CustomWeather, © 2015

Note: Actual official high and low records may vary slightly from our data, if they occured in-between our weather recording intervals... More about our weather records

Advertising

Rotterdam weather history for previous 24 hours

 ConditionsComfort  
Time TempWeatherWind HumidityBarometerVisibility
6:25 PM
Sat, May 30
57 °FClear.10 mph55%30.01 "HgN/A
5:55 PM59 °FBroken clouds.10 mph55%30.01 "HgN/A
5:25 PM57 °FScattered clouds.10 mph55%29.98 "HgN/A
4:55 PM59 °FPassing clouds.13 mph51%29.98 "HgN/A
4:25 PM59 °FPassing clouds.14 mph48%29.98 "HgN/A
3:55 PM57 °FBroken clouds.13 mph55%29.98 "HgN/A
3:25 PM55 °FClear.14 mph55%29.98 "HgN/A
2:55 PM59 °FBroken clouds.15 mph51%29.98 "HgN/A
2:25 PM59 °FPassing clouds.17 mph51%29.95 "HgN/A
1:55 PM57 °FBroken clouds.14 mph55%29.95 "HgN/A
1:25 PM57 °FScattered clouds.17 mph55%29.95 "HgN/A
12:55 PM55 °FScattered clouds.16 mph59%29.95 "HgN/A
12:25 PM55 °FPassing clouds.16 mph63%29.92 "HgN/A
11:55 AM55 °FMostly cloudy.15 mph63%29.92 "HgN/A
11:25 AM55 °FBroken clouds.15 mph59%29.92 "HgN/A
10:55 AM55 °FScattered clouds.14 mph59%29.89 "HgN/A
10:25 AM55 °FScattered clouds.16 mph63%29.89 "HgN/A
9:55 AM54 °FScattered clouds.12 mph67%29.89 "HgN/A
9:25 AM54 °FPassing clouds.14 mph67%29.86 "HgN/A
8:55 AM54 °FScattered clouds.9 mph72%29.86 "HgN/A
8:25 AM50 °FBroken clouds.13 mph71%29.83 "HgN/A
7:55 AM52 °FThunderstorms. Partly sunny.8 mph72%29.83 "HgN/A
7:25 AM52 °FPassing clouds.9 mph72%29.83 "HgN/A
6:55 AM50 °FScattered clouds.10 mph71%29.83 "HgN/A
6:25 AM48 °FPassing clouds.8 mph76%29.83 "HgN/A
5:55 AM46 °FPassing clouds.8 mph82%29.80 "HgN/A
5:25 AM46 °FPassing clouds.9 mph82%29.80 "HgN/A
4:55 AM45 °FClear.7 mph87%29.80 "HgN/A
4:25 AM46 °FCool.7 mph82%29.80 "HgN/A
3:55 AM46 °FCool.8 mph82%29.80 "HgN/A
3:25 AM46 °FCool.7 mph82%29.77 "HgN/A
2:55 AM45 °FClear.6 mph81%29.77 "HgN/A
2:25 AM45 °FClear.6 mph87%29.77 "HgN/A
1:55 AM46 °FCool.7 mph87%29.77 "HgN/A
1:25 AM46 °FPassing clouds.6 mph87%29.77 "HgN/A
12:55 AM46 °FCool.6 mph93%29.77 "HgN/A
12:25 AM45 °FPassing clouds.8 mph93%29.74 "HgN/A
11:55 PM
Fri, May 29
46 °FCool.6 mph87%29.74 "HgN/A
11:25 PM48 °FPassing clouds.7 mph87%29.74 "HgN/A
10:25 PM52 °FBroken clouds.12 mph77%29.71 "HgN/A
9:55 PM52 °FPartly sunny.14 mph82%29.71 "HgN/A
9:25 PM52 °FLight rain. Broken clouds.10 mph88%29.71 "HgN/A
8:55 PM52 °FDrizzle. Partly sunny.18 mph82%29.68 "HgN/A
8:25 PM52 °FDrizzle. Cloudy.18 mph82%29.68 "HgN/A
7:55 PM52 °FPartly sunny.20 mph82%29.68 "HgN/A
7:25 PM54 °FPassing clouds.23 mph77%29.68 "HgN/A
Weather by CustomWeather, © 2015

See weather overviewHow to use our weather pages